Weather History for Dubuque, IA

Change the Weather History Date:

Thursday, August 1, 2013

  Actual Average Record
Temperature  
Mean Temperature 69 °F 71 °F  
Max Temperature 79 °F 81 °F 100 °F (1988)
Min Temperature 58 °F 62 °F 51 °F (1992)
Degree Days  
Heating Degree Days 0 0  
Month to date heating degree days 0 0  
Since 1 June heating degree days 61 48  
Since 1 July heating degree days 22 8  
Cooling Degree Days 4 7  
Month to date cooling degree days 4 7  
Year to date cooling degree days 356 407  
Since 1 June cooling degree days 311 370  
Growing Degree Days 18 (Base 50)    
Moisture  
Dew Point 57 °F    
Average Humidity 65    
Maximum Humidity 87    
Minimum Humidity 42    
Precipitation  
Precipitation 0.00 in 0.14 in 2.95 in (1972)
Month to date precipitation 0.00 0.14  
Year to date precipitation 27.71 21.72  
Snow  
Snow 0.00 in 0.00 in - ()
Month to date snowfall 0.0 0.0  
Since 1 June snowfall 0.0 0.0  
Since 1 July snowfall 0.0 0.0  
Snow Depth 0.00 in    
Sea Level Pressure  
Sea Level Pressure 30.01 in    
Wind  
Wind Speed 7 mph (NW)    
Max Wind Speed 16 mph    
Max Gust Speed 21 mph    
Visibility 10 miles    
Events      
T = Trace of Precipitation, MM = Missing Value Source: NWS Daily Summary

Daily Weather History Graph

Daily Weather History Graph

Search for Another Location

Airport:

Trip Planner

Search our weather history database for the weather conditions in past years. The results will help you decide how hot, cold, wet, or windy it might be!

Date:

Astronomy

Aug. 01, 2013 Rise Set
Actual Time 5:55 AM CDT 8:22 PM CDT
Civil Twilight 5:23 AM CDT 8:53 PM CDT
Nautical Twilight 4:44 AM CDT 9:33 PM CDT
Astronomical Twilight 3:59 AM CDT 10:17 PM CDT
Moon 1:31 AM CDT (8/1) 4:31 PM CDT (8/1)
Length of Visible Light 15h 30m
Length of Day
14h 26m
Waning Crescent, 23% of the Moon is Illuminated
Aug 1
Waning Crescent
Aug 6
New
Aug 14
First Quarter
Aug 20
Full
Aug 28
Last Quarter

Hourly Weather History & Observations

Time (CDT) Temp. Dew Point Humidity Pressure Visibility Wind Dir Wind Speed Gust Speed Precip Events Conditions
12:53 AM 66.0 °F 60.1 °F 81% 30.03 in 10.0 mi NW 6.9 mph - N/A   Overcast
1:53 AM 64.9 °F 57.0 °F 75% 30.03 in 10.0 mi NW 6.9 mph - N/A   Mostly Cloudy
2:53 AM 64.0 °F 55.9 °F 75% 30.02 in 10.0 mi NW 9.2 mph - N/A   Clear
3:53 AM 63.0 °F 53.1 °F 70% 30.01 in 10.0 mi NNW 6.9 mph - N/A   Clear
4:53 AM 60.1 °F 54.0 °F 80% 30.01 in 10.0 mi WNW 5.8 mph - N/A   Scattered Clouds
5:53 AM 59.0 °F 55.0 °F 87% 30.02 in 10.0 mi WNW 5.8 mph - N/A   Clear
6:53 AM 63.0 °F 55.0 °F 75% 30.03 in 10.0 mi NW 8.1 mph - N/A   Clear
7:53 AM 66.0 °F 55.0 °F 68% 30.04 in 10.0 mi NW 8.1 mph - N/A   Clear
8:53 AM 69.1 °F 55.9 °F 63% 30.05 in 10.0 mi NW 11.5 mph - N/A   Clear
9:53 AM 70.0 °F 55.0 °F 59% 30.06 in 10.0 mi NNW 11.5 mph - N/A   Clear
10:53 AM 71.1 °F 53.1 °F 53% 30.06 in 10.0 mi NNW 13.8 mph 19.6 mph N/A   Clear
11:53 AM 73.9 °F 54.0 °F 50% 30.06 in 10.0 mi NNW 11.5 mph - N/A   Clear
12:53 PM 75.0 °F 54.0 °F 48% 30.04 in 10.0 mi North 10.4 mph - N/A   Clear
1:53 PM 75.9 °F 53.1 °F 45% 30.03 in 10.0 mi North 9.2 mph - N/A   Clear
2:53 PM 77.0 °F 54.0 °F 45% 30.02 in 10.0 mi NW 8.1 mph - N/A   Clear
3:53 PM 78.1 °F 54.0 °F 43% 30.00 in 10.0 mi WNW 6.9 mph - N/A   Clear
4:53 PM 77.0 °F 57.0 °F 50% 29.99 in 10.0 mi West 4.6 mph - N/A   Clear
5:53 PM 75.9 °F 57.9 °F 54% 29.98 in 10.0 mi WSW 6.9 mph - N/A   Clear
6:53 PM 73.9 °F 61.0 °F 64% 29.97 in 10.0 mi Calm Calm - N/A   Clear
7:53 PM 71.1 °F 63.0 °F 75% 29.95 in 10.0 mi South 4.6 mph - N/A   Partly Cloudy
8:53 PM 68.0 °F 62.1 °F 81% 29.94 in 10.0 mi South 4.6 mph - N/A   Scattered Clouds
9:53 PM 68.0 °F 61.0 °F 78% 29.94 in 10.0 mi Calm Calm - N/A   Scattered Clouds
10:53 PM 66.0 °F 62.1 °F 87% 29.93 in 10.0 mi South 4.6 mph - N/A   Mostly Cloudy
11:53 PM 64.9 °F 61.0 °F 87% 29.91 in 10.0 mi South 4.6 mph - N/A   Partly Cloudy